Louisville, KY

5:03 PM EDT on September 20, 2017 (GMT -0400)
Louisville International-Standiford

Weather History for KSDF - March, 2013

Change the Weather History Date:

Friday, March 29, 2013

  Actual Average Record
Temperature  
Mean Temperature 47 °F 52 °F  
Max Temperature 59 °F 63 °F 86 °F (1895)
Min Temperature 35 °F 42 °F 18 °F (1887)
Degree Days  
Heating Degree Days 18 13  
Month to date heating degree days 709 512  
Since 1 July heating degree days 3791 3753  
Cooling Degree Days 0 0  
Month to date cooling degree days 0 0  
Year to date cooling degree days 0 0  
Moisture  
Dew Point 33 °F    
Average Humidity 64    
Maximum Humidity 83    
Minimum Humidity 44    
Precipitation  
Precipitation 0.00 in 0.14 in 1.37 in (1965)
Month to date precipitation 4.20 3.89  
Year to date precipitation 11.22 10.31  
Snow  
Snow 0.00 in 0.10 in 6.40 in (1970)
Month to date snowfall 1.4 1.4  
Since 1 July snowfall 9.5 12.4  
Snow Depth 0.00 in    
Sea Level Pressure  
Sea Level Pressure 30.28 in    
Wind  
Wind Speed 3 mph (South)    
Max Wind Speed 12 mph    
Max Gust Speed 16 mph    
Visibility 10 miles    
Events      
T = Trace of Precipitation, MM = Missing Value Source: NWS Daily Summary

Daily Weather History Graph

Daily Weather History Graph

Search for Another Location

Airport or City:

Trip Planner

Search our weather history database for the weather conditions in past years. The results will help you decide how hot, cold, wet, or windy it might be!

Date:

Astronomy

Mar. 29, 2013 Rise Set
Actual Time 7:32 AM EDT 8:03 PM EDT
Civil Twilight 7:05 AM EDT 8:30 PM EDT
Nautical Twilight 6:34 AM EDT 9:01 PM EDT
Astronomical Twilight 6:02 AM EDT 9:33 PM EDT
Moon 10:59 PM EDT (3/29) 8:43 AM EDT (3/29)
Length of Visible Light 13h 24m
Length of Day
12h 31m
Waning Gibbous, 93% of the Moon is Illuminated
Mar 29
Waning Gibbous
Apr 3
Last Quarter
Apr 10
New
Apr 18
First Quarter
Apr 25
Full

Hourly Weather History & Observations

Time (EDT) Temp. Windchill Dew Point Humidity Pressure Visibility Wind Dir Wind Speed Gust Speed Precip Events Conditions
12:56 AM 42.1 °F - 25.0 °F 51% 30.33 in 10.0 mi Calm Calm - N/A   Clear
1:56 AM 39.9 °F - 26.1 °F 58% 30.32 in 10.0 mi Calm Calm - N/A   Clear
2:56 AM 37.9 °F - 26.1 °F 62% 30.32 in 10.0 mi Calm Calm - N/A   Clear
3:56 AM 37.0 °F - 26.1 °F 65% 30.31 in 10.0 mi Calm Calm - N/A   Clear
4:56 AM 39.0 °F - 27.0 °F 62% 30.30 in 10.0 mi Calm Calm - N/A   Clear
5:56 AM 36.0 °F - 27.0 °F 70% 30.30 in 10.0 mi Calm Calm - N/A   Partly Cloudy
6:56 AM 36.0 °F - 27.0 °F 70% 30.31 in 10.0 mi Calm Calm - N/A   Scattered Clouds
7:56 AM 36.0 °F - 27.0 °F 70% 30.32 in 9.0 mi Calm Calm - N/A   Overcast
8:56 AM 37.9 °F 35.5 °F 28.0 °F 68% 30.34 in 9.0 mi SE 3.5 mph - N/A   Overcast
9:56 AM 42.1 °F - 28.9 °F 60% 30.33 in 10.0 mi Calm Calm - N/A   Overcast
10:56 AM 46.9 °F - 28.9 °F 50% 30.32 in 10.0 mi Calm Calm - N/A   Scattered Clouds
11:56 AM 52.0 °F - 30.0 °F 43% 30.31 in 10.0 mi Variable 5.8 mph - N/A   Overcast
12:56 PM 53.1 °F - 36.0 °F 52% 30.31 in 10.0 mi SW 5.8 mph - N/A   Mostly Cloudy
1:56 PM 53.1 °F - 37.0 °F 55% 30.29 in 10.0 mi Variable 5.8 mph - N/A   Mostly Cloudy
2:56 PM 57.0 °F - 37.9 °F 49% 30.26 in 10.0 mi South 8.1 mph - N/A   Mostly Cloudy
3:56 PM 57.9 °F - 37.9 °F 47% 30.24 in 10.0 mi South 5.8 mph - N/A   Mostly Cloudy
4:56 PM 55.0 °F - 37.0 °F 51% 30.22 in 10.0 mi SSE 5.8 mph - N/A   Mostly Cloudy
5:56 PM 55.0 °F - 36.0 °F 49% 30.21 in 10.0 mi South 8.1 mph - N/A   Overcast
6:56 PM 54.0 °F - 39.0 °F 57% 30.22 in 10.0 mi South 5.8 mph - N/A   Mostly Cloudy
7:56 PM 51.1 °F - 39.9 °F 66% 30.22 in 10.0 mi South 10.4 mph - N/A   Scattered Clouds
8:56 PM 48.9 °F - 39.9 °F 71% 30.23 in 10.0 mi South 4.6 mph - N/A   Partly Cloudy
9:56 PM 48.0 °F - 39.9 °F 74% 30.25 in 10.0 mi South 3.5 mph - N/A   Scattered Clouds
10:56 PM 46.9 °F - 39.9 °F 77% 30.26 in 10.0 mi Calm Calm - N/A   Mostly Cloudy
11:56 PM 45.0 °F - 39.9 °F 82% 30.25 in 10.0 mi Calm Calm - N/A   Scattered Clouds